TimeEDT,TemperatureF,Dew PointF,Humidity,Sea Level PressureIn,VisibilityMPH,Wind Direction,Wind SpeedMPH,Gust SpeedMPH,PrecipitationIn,Events,Conditions,WindDirDegrees,DateUTC
12:53 AM,78.1,73.9,87,30.11,10.0,NE,3.5,-,N/A,,Overcast,40,2013-07-03 04:53:00
1:53 AM,80.1,73.9,81,30.08,10.0,East,6.9,-,N/A,,Mostly Cloudy,100,2013-07-03 05:53:00
2:53 AM,78.1,72.0,81,30.07,10.0,ESE,5.8,-,N/A,,Mostly Cloudy,110,2013-07-03 06:53:00
3:53 AM,79.0,72.0,79,30.06,10.0,SE,5.8,-,N/A,,Mostly Cloudy,130,2013-07-03 07:53:00
4:53 AM,78.1,73.0,84,30.07,10.0,ESE,4.6,-,N/A,,Mostly Cloudy,120,2013-07-03 08:53:00
5:53 AM,79.0,73.0,82,30.07,10.0,SE,8.1,-,N/A,,Mostly Cloudy,130,2013-07-03 09:53:00
6:53 AM,79.0,73.0,82,30.08,10.0,ESE,6.9,-,N/A,,Overcast,120,2013-07-03 10:53:00
7:53 AM,82.0,75.0,79,30.09,10.0,ESE,10.4,-,N/A,,Mostly Cloudy,110,2013-07-03 11:53:00
8:53 AM,82.9,75.0,77,30.10,10.0,ESE,15.0,-,N/A,,Mostly Cloudy,110,2013-07-03 12:53:00
9:23 AM,82.4,73.4,74,30.10,10.0,ESE,16.1,23.0,N/A,,Mostly Cloudy,120,2013-07-03 13:23:00
9:50 AM,84.2,73.4,70,30.11,10.0,ESE,15.0,-,N/A,,Mostly Cloudy,120,2013-07-03 13:50:00
9:53 AM,84.0,73.9,72,30.11,10.0,SE,13.8,20.7,N/A,,Mostly Cloudy,140,2013-07-03 13:53:00
10:53 AM,84.0,73.0,69,30.12,10.0,ESE,15.0,21.9,N/A,,Mostly Cloudy,110,2013-07-03 14:53:00
11:53 AM,87.1,73.9,65,30.13,10.0,ESE,20.7,-,N/A,,Mostly Cloudy,110,2013-07-03 15:53:00
12:53 PM,87.1,75.0,67,30.12,10.0,SE,17.3,-,N/A,,Mostly Cloudy,130,2013-07-03 16:53:00
1:53 PM,87.1,73.9,65,30.10,10.0,ESE,18.4,27.6,N/A,,Mostly Cloudy,120,2013-07-03 17:53:00
2:53 PM,87.1,73.9,65,30.09,10.0,ESE,20.7,27.6,N/A,,Mostly Cloudy,120,2013-07-03 18:53:00
3:53 PM,86.0,75.0,70,30.07,10.0,SE,19.6,27.6,N/A,,Mostly Cloudy,130,2013-07-03 19:53:00
4:53 PM,84.9,73.9,69,30.07,10.0,SE,17.3,24.2,N/A,,Mostly Cloudy,140,2013-07-03 20:53:00
5:53 PM,84.0,75.0,74,30.07,10.0,SE,16.1,-,N/A,,Mostly Cloudy,130,2013-07-03 21:53:00
6:53 PM,84.0,73.9,72,30.09,10.0,SE,12.7,19.6,N/A,,Overcast,130,2013-07-03 22:53:00
7:42 PM,82.4,73.4,74,30.09,10.0,ESE,12.7,24.2,N/A,,Overcast,120,2013-07-03 23:42:00
7:47 PM,82.4,73.4,74,30.09,10.0,ESE,10.4,-,N/A,,Overcast,120,2013-07-03 23:47:00
7:53 PM,82.0,73.0,74,30.10,10.0,ESE,10.4,-,N/A,,Overcast,110,2013-07-03 23:53:00
8:53 PM,81.0,75.9,85,30.10,10.0,East,9.2,-,0.02,,Overcast,100,2013-07-04 00:53:00
9:53 PM,82.0,75.9,82,30.12,10.0,ESE,6.9,-,N/A,,Overcast,120,2013-07-04 01:53:00
10:53 PM,82.0,75.0,79,30.13,10.0,ESE,10.4,-,N/A,,Overcast,110,2013-07-04 02:53:00
11:53 PM,82.0,75.0,79,30.14,10.0,ESE,6.9,-,N/A,,Overcast,110,2013-07-04 03:53:00